| time (UTC) | temp F | wind direction | speed MPH | gust MPH | rain 1hr in | rain 24hr in | rain mn in | humidity % | barometer mb |
| 20260508111042 | 55 | 322 | 2.0 | 12.0 | 0.00 | 0.00 | 0.00 | 35 | 1025.7 |
| 20260508110143 | 55 | 341 | 1.0 | 12.0 | 0.00 | 0.00 | 0.00 | 39 | 1025.5 |
| 20260508105455 | 54 | 336 | 1.0 | 12.0 | 0.00 | 0.00 | 0.00 | 38 | 1025.6 |
| 20260508104343 | 53 | 256 | 1.0 | 7.0 | 0.00 | 0.00 | 0.00 | 39 | 1025.5 |
| 20260508103442 | 52 | 332 | 2.0 | 14.0 | 0.00 | 0.00 | 0.00 | 39 | 1025.4 |
| 20260508102543 | 53 | 344 | 3.0 | 14.0 | 0.00 | 0.00 | 0.00 | 39 | 1025.4 |
| 20260508101643 | 54 | 333 | 3.0 | 11.0 | 0.00 | 0.00 | 0.00 | 40 | 1025.5 |
| 20260508100743 | 54 | 323 | 1.0 | 10.0 | 0.00 | 0.00 | 0.00 | 41 | 1025.4 |
| 20260508095843 | 54 | 11 | 2.0 | 10.0 | 0.00 | 0.00 | 0.00 | 41 | 1025.4 |
| 20260508094943 | 53 | 347 | 2.0 | 11.0 | 0.00 | 0.00 | 0.00 | 41 | 1025.3 |
| 20260508094042 | 52 | 315 | 2.0 | 10.0 | 0.00 | 0.00 | 0.00 | 42 | 1025.3 |
| 20260508093356 | 53 | 335 | 1.0 | 7.0 | 0.00 | 0.00 | 0.00 | 42 | 1025.2 |
| 20260508092243 | 52 | 340 | 2.0 | 15.0 | 0.00 | 0.00 | 0.00 | 45 | 1025.1 |
| 20260508091343 | 52 | 335 | 2.0 | 9.0 | 0.00 | 0.00 | 0.00 | 44 | 1025.1 |
| 20260508090442 | 51 | 316 | 1.0 | 9.0 | 0.00 | 0.00 | 0.00 | 45 | 1025.1 |
| 20260508085543 | 51 | 331 | 2.0 | 11.0 | 0.00 | 0.00 | 0.00 | 44 | 1025.2 |
| 20260508084643 | 52 | 343 | 3.0 | 12.0 | 0.00 | 0.00 | 0.00 | 48 | 1025.0 |
| 20260508083742 | 51 | 325 | 1.0 | 8.0 | 0.00 | 0.00 | 0.00 | 46 | 1024.9 |
| 20260508082842 | 51 | 339 | 2.0 | 8.0 | 0.00 | 0.00 | 0.00 | 47 | 1024.9 |
| 20260508081943 | 50 | 326 | 2.0 | 13.0 | 0.00 | 0.00 | 0.00 | 48 | 1024.8 |
| 20260508081043 | 50 | 337 | 2.0 | 10.0 | 0.00 | 0.00 | 0.00 | 49 | 1024.7 |
| 20260508080142 | 50 | 335 | 3.0 | 11.0 | 0.00 | 0.00 | 0.00 | 50 | 1024.7 |
| 20260508075243 | 49 | 315 | 2.0 | 12.0 | 0.00 | 0.00 | 0.00 | 50 | 1024.6 |
| 20260508074342 | 49 | 315 | 1.0 | 7.0 | 0.00 | 0.00 | 0.00 | 53 | 1024.5 |
| 20260508073656 | 49 | 334 | 2.0 | 15.0 | 0.00 | 0.00 | 0.00 | 55 | 1024.5 |
| 20260508072754 | 48 | 324 | 1.0 | 5.0 | 0.00 | 0.00 | 0.00 | 57 | 1024.4 |
| 20260508071642 | 47 | 0 | 0.0 | 4.0 | 0.00 | 0.00 | 0.00 | 61 | 1024.3 |
| 20260508070743 | 47 | 0 | 0.0 | 6.0 | 0.00 | 0.00 | 0.00 | 60 | 1024.3 |
| 20260508070055 | 47 | 294 | 1.0 | 3.0 | 0.00 | 0.00 | 0.00 | 61 | 1024.2 |
| 20260508065153 | 46 | 325 | 2.0 | 12.0 | 0.00 | 0.00 | 0.00 | 61 | 1024.1 |
| 20260508064255 | 46 | 294 | 1.0 | 9.0 | 0.00 | 0.00 | 0.00 | 64 | 1024.0 |
| 20260508063142 | 45 | 0 | 0.0 | 2.0 | 0.00 | 0.00 | 0.00 | 70 | 1024.0 |
| 20260508062243 | 44 | 232 | 1.0 | 5.0 | 0.00 | 0.00 | 0.00 | 71 | 1023.9 |
| 20260508061552 | 44 | 0 | 0.0 | 5.0 | 0.00 | 0.00 | 0.00 | 72 | 1023.8 |
| 20260508060442 | 43 | 0 | 0.0 | 1.0 | 0.00 | 0.00 | 0.00 | 73 | 1023.6 |
| 20260508055542 | 42 | 0 | 0.0 | 3.0 | 0.00 | 0.00 | 0.00 | 75 | 1023.6 |
| 20260508054642 | 42 | 0 | 0.0 | 0.0 | 0.00 | 0.00 | 0.00 | 76 | 1023.5 |
| 20260508053743 | 41 | 0 | 0.0 | 1.0 | 0.00 | 0.00 | 0.00 | 78 | 1023.5 |
| 20260508052842 | 40 | 0 | 0.0 | 2.0 | 0.00 | 0.00 | 0.00 | 79 | 1023.4 |
| 20260508051942 | 40 | 0 | 0.0 | 3.0 | 0.00 | 0.00 | 0.00 | 79 | 1023.2 |
| 20260508051254 | 40 | 0 | 0.0 | 3.0 | 0.00 | 0.00 | 0.00 | 81 | 1023.3 |
| 20260508050356 | 39 | 0 | 0.0 | 2.0 | 0.00 | 0.00 | 0.00 | 81 | 1023.2 |
| 20260508045242 | 38 | 0 | 0.0 | 0.0 | 0.00 | 0.00 | 0.00 | 83 | 1023.1 |
| 20260508044342 | 38 | 0 | 0.0 | 0.0 | 0.00 | 0.00 | 0.00 | 83 | 1023.1 |
| 20260508043443 | 38 | 0 | 0.0 | 0.0 | 0.00 | 0.00 | 0.00 | 84 | 1022.9 |
| 20260508042543 | 38 | 0 | 0.0 | 2.0 | 0.00 | 0.00 | 0.00 | 84 | 1022.9 |
| 20260508041642 | 37 | 0 | 0.0 | 2.0 | 0.00 | 0.00 | 0.00 | 85 | 1022.8 |
| 20260508040742 | 37 | 0 | 0.0 | 2.0 | 0.00 | 0.00 | 0.00 | 86 | 1022.8 |
| 20260508040052 | 36 | 0 | 0.0 | 2.0 | 0.00 | 0.00 | 0.00 | 87 | 1022.7 |
| 20260508034942 | 36 | 0 | 0.0 | 7.0 | 0.00 | 0.00 | 0.00 | 88 | 1022.4 |
| 20260508034043 | 35 | 0 | 0.0 | 4.0 | 0.00 | 0.00 | 0.00 | 89 | 1022.4 |
| 20260508033142 | 34 | 0 | 0.0 | 2.0 | 0.00 | 0.00 | 0.00 | 91 | 1022.2 |
| 20260508032242 | 34 | 0 | 0.0 | 0.0 | 0.00 | 0.00 | 0.00 | 91 | 1022.0 |
| 20260508031554 | 33 | 0 | 0.0 | 0.0 | 0.00 | 0.00 | 0.00 | 91 | 1022.0 |
| 20260508030442 | 33 | 0 | 0.0 | 0.0 | 0.00 | 0.00 | 0.00 | 90 | 1021.9 |
| 20260508025542 | 33 | 0 | 0.0 | 0.0 | 0.00 | 0.00 | 0.00 | 89 | 1021.8 |
| 20260508024643 | 33 | 0 | 0.0 | 0.0 | 0.00 | 0.00 | 0.00 | 89 | 1021.7 |
| 20260508023743 | 32 | 0 | 0.0 | 0.0 | 0.00 | 0.00 | 0.00 | 89 | 1021.6 |
| 20260508022842 | 32 | 0 | 0.0 | 0.0 | 0.00 | 0.00 | 0.00 | 89 | 1021.4 |
| 20260508021943 | 32 | 0 | 0.0 | 0.0 | 0.00 | 0.00 | 0.00 | 88 | 1021.4 |
| 20260508021043 | 33 | 0 | 0.0 | 0.0 | 0.00 | 0.00 | 0.00 | 87 | 1021.3 |
| 20260508020143 | 33 | 0 | 0.0 | 0.0 | 0.00 | 0.00 | 0.00 | 86 | 1021.3 |
| 20260508015242 | 33 | 0 | 0.0 | 0.0 | 0.00 | 0.00 | 0.00 | 86 | 1021.1 |
| 20260508014342 | 33 | 0 | 0.0 | 0.0 | 0.00 | 0.00 | 0.00 | 86 | 1021.0 |
| 20260508013442 | 33 | 0 | 0.0 | 0.0 | 0.00 | 0.00 | 0.00 | 85 | 1020.9 |
| 20260508012542 | 34 | 0 | 0.0 | 0.0 | 0.00 | 0.00 | 0.00 | 85 | 1020.9 |
| 20260508011642 | 34 | 0 | 0.0 | 0.0 | 0.00 | 0.00 | 0.00 | 85 | 1020.7 |
| 20260508010743 | 34 | 0 | 0.0 | 0.0 | 0.00 | 0.00 | 0.00 | 85 | 1020.7 |
| 20260508005842 | 34 | 0 | 0.0 | 3.0 | 0.00 | 0.00 | 0.00 | 84 | 1020.5 |
| 20260508004942 | 34 | 0 | 0.0 | 0.0 | 0.00 | 0.00 | 0.00 | 84 | 1020.5 |
| 20260508004254 | 34 | 0 | 0.0 | 0.0 | 0.00 | 0.00 | 0.00 | 83 | 1020.3 |
| 20260508003356 | 34 | 0 | 0.0 | 0.0 | 0.00 | 0.00 | 0.00 | 83 | 1020.3 |
| 20260508002243 | 35 | 0 | 0.0 | 0.0 | 0.00 | 0.00 | 0.00 | 82 | 1020.1 |
| 20260508001342 | 35 | 0 | 0.0 | 0.0 | 0.00 | 0.00 | 0.00 | 80 | 1020.1 |
| 20260508000443 | 35 | 0 | 0.0 | 0.0 | 0.00 | 0.00 | 0.00 | 80 | 1020.0 |
| 20260507235543 | 36 | 0 | 0.0 | 3.0 | 0.00 | 0.00 | 0.00 | 79 | 1020.0 |
| 20260507234642 | 36 | 0 | 0.0 | 2.0 | 0.00 | 0.00 | 0.00 | 78 | 1019.8 |
| 20260507233742 | 36 | 0 | 0.0 | 0.0 | 0.00 | 0.00 | 0.00 | 78 | 1019.8 |
| 20260507232842 | 36 | 0 | 0.0 | 1.0 | 0.00 | 0.00 | 0.00 | 78 | 1019.7 |
| 20260507232155 | 37 | 0 | 0.0 | 4.0 | 0.00 | 0.00 | 0.00 | 77 | 1019.6 |
| 20260507231252 | 37 | 0 | 0.0 | 0.0 | 0.00 | 0.00 | 0.00 | 76 | 1019.5 |
| 20260507225243 | 38 | 0 | 0.0 | 0.0 | 0.00 | 0.00 | 0.00 | 74 | 1019.3 |
| 20260507224342 | 38 | 0 | 0.0 | 0.0 | 0.00 | 0.00 | 0.00 | 74 | 1019.1 |
| 20260507223442 | 38 | 0 | 0.0 | 0.0 | 0.00 | 0.00 | 0.00 | 73 | 1019.0 |
| 20260507222542 | 38 | 0 | 0.0 | 0.0 | 0.00 | 0.00 | 0.00 | 73 | 1019.0 |
| 20260507221642 | 38 | 0 | 0.0 | 0.0 | 0.00 | 0.00 | 0.00 | 72 | 1018.9 |
| 20260507220742 | 39 | 0 | 0.0 | 0.0 | 0.00 | 0.00 | 0.00 | 71 | 1018.8 |
| 20260507215843 | 39 | 0 | 0.0 | 0.0 | 0.00 | 0.00 | 0.00 | 71 | 1018.7 |
| 20260507214942 | 39 | 0 | 0.0 | 0.0 | 0.00 | 0.00 | 0.00 | 70 | 1018.7 |
| 20260507214042 | 40 | 0 | 0.0 | 0.0 | 0.00 | 0.00 | 0.00 | 69 | 1018.6 |
| 20260507213142 | 40 | 0 | 0.0 | 0.0 | 0.00 | 0.00 | 0.00 | 68 | 1018.5 |
| 20260507212242 | 40 | 0 | 0.0 | 0.0 | 0.00 | 0.00 | 0.00 | 68 | 1018.4 |
| 20260507211342 | 40 | 0 | 0.0 | 7.0 | 0.00 | 0.00 | 0.00 | 67 | 1018.3 |
| 20260507210442 | 40 | 0 | 0.0 | 5.0 | 0.00 | 0.00 | 0.00 | 66 | 1018.2 |
| 20260507205542 | 41 | 286 | 1.0 | 7.0 | 0.00 | 0.00 | 0.00 | 65 | 1018.1 |
| 20260507204643 | 41 | 280 | 1.0 | 5.0 | 0.00 | 0.00 | 0.00 | 65 | 1018.0 |
| 20260507203742 | 41 | 0 | 0.0 | 4.0 | 0.00 | 0.00 | 0.00 | 65 | 1017.8 |
| 20260507202842 | 41 | 309 | 1.0 | 6.0 | 0.00 | 0.00 | 0.00 | 66 | 1017.7 |
| 20260507201943 | 40 | 281 | 1.0 | 6.0 | 0.00 | 0.00 | 0.00 | 66 | 1017.6 |
| 20260507201043 | 41 | 0 | 0.0 | 0.0 | 0.00 | 0.00 | 0.00 | 65 | 1017.5 |
| 20260507200142 | 41 | 0 | 0.0 | 0.0 | 0.00 | 0.00 | 0.00 | 63 | 1017.4 |
| 20260507195242 | 42 | 0 | 0.0 | 0.0 | 0.00 | 0.00 | 0.00 | 62 | 1017.3 |
| 20260507194343 | 42 | 0 | 0.0 | 1.0 | 0.00 | 0.00 | 0.00 | 61 | 1017.2 |
| 20260507193654 | 43 | 0 | 0.0 | 0.0 | 0.00 | 0.00 | 0.00 | 61 | 1017.1 |
| 20260507192544 | 44 | 0 | 0.0 | 0.0 | 0.00 | 0.00 | 0.00 | 60 | 1016.8 |
| 20260507191642 | 44 | 0 | 0.0 | 0.0 | 0.00 | 0.00 | 0.00 | 58 | 1016.7 |
| 20260507190742 | 45 | 0 | 0.0 | 0.0 | 0.00 | 0.00 | 0.00 | 57 | 1016.6 |
| 20260507190053 | 45 | 0 | 0.0 | 0.0 | 0.00 | 0.00 | 0.00 | 56 | 1016.5 |
| 20260507184943 | 45 | 0 | 0.0 | 1.0 | 0.00 | 0.00 | 0.00 | 56 | 1016.5 |
| 20260507184042 | 46 | 332 | 1.0 | 4.0 | 0.00 | 0.00 | 0.00 | 55 | 1016.4 |
| 20260507183355 | 46 | 334 | 2.0 | 9.0 | 0.00 | 0.00 | 0.00 | 55 | 1016.3 |
| 20260507182243 | 46 | 330 | 2.0 | 10.0 | 0.00 | 0.00 | 0.00 | 53 | 1016.3 |
| 20260507181342 | 47 | 329 | 3.0 | 11.0 | 0.00 | 0.00 | 0.00 | 52 | 1016.3 |
| 20260507180442 | 48 | 311 | 2.0 | 10.0 | 0.00 | 0.00 | 0.00 | 51 | 1016.1 |
| 20260507175542 | 49 | 322 | 4.0 | 15.0 | 0.00 | 0.00 | 0.00 | 47 | 1016.0 |
| 20260507174642 | 50 | 170 | 1.0 | 4.0 | 0.00 | 0.00 | 0.00 | 41 | 1015.5 |
| 20260507173954 | 50 | 278 | 1.0 | 5.0 | 0.00 | 0.00 | 0.00 | 41 | 1015.4 |
| 20260507172842 | 50 | 0 | 0.0 | 3.0 | 0.00 | 0.00 | 0.00 | 40 | 1015.4 |
| 20260507171943 | 50 | 0 | 0.0 | 4.0 | 0.00 | 0.00 | 0.00 | 40 | 1015.3 |
| 20260507171042 | 51 | 266 | 2.0 | 10.0 | 0.00 | 0.00 | 0.00 | 40 | 1015.4 |
| 20260507170142 | 51 | 0 | 0.0 | 6.0 | 0.00 | 0.00 | 0.00 | 39 | 1015.3 |
| 20260507165243 | 52 | 0 | 0.0 | 0.0 | 0.00 | 0.00 | 0.00 | 38 | 1015.2 |
| 20260507164342 | 52 | 247 | 1.0 | 7.0 | 0.00 | 0.00 | 0.00 | 37 | 1015.1 |
| 20260507163443 | 52 | 238 | 1.0 | 6.0 | 0.00 | 0.00 | 0.00 | 36 | 1015.0 |
| 20260507162542 | 52 | 258 | 1.0 | 4.0 | 0.00 | 0.00 | 0.00 | 35 | 1014.9 |
| 20260507161642 | 52 | 320 | 2.0 | 8.0 | 0.00 | 0.00 | 0.00 | 34 | 1014.7 |
| 20260507160742 | 53 | 328 | 2.0 | 12.0 | 0.00 | 0.00 | 0.00 | 35 | 1014.6 |
| 20260507155842 | 53 | 324 | 1.0 | 11.0 | 0.00 | 0.00 | 0.00 | 34 | 1014.6 |
| 20260507154942 | 54 | 0 | 0.0 | 4.0 | 0.00 | 0.00 | 0.00 | 31 | 1014.5 |
| 20260507154043 | 54 | 0 | 0.0 | 3.0 | 0.00 | 0.00 | 0.00 | 31 | 1014.4 |
| 20260507153142 | 54 | 0 | 0.0 | 4.0 | 0.00 | 0.00 | 0.00 | 31 | 1014.4 |
| 20260507152242 | 54 | 0 | 0.0 | 3.0 | 0.00 | 0.00 | 0.00 | 32 | 1014.3 |
| 20260507151342 | 54 | 75 | 1.0 | 4.0 | 0.00 | 0.00 | 0.00 | 35 | 1014.3 |
| 20260507150654 | 54 | 0 | 0.0 | 4.0 | 0.00 | 0.00 | 0.00 | 34 | 1014.3 |
| 20260507145542 | 53 | 0 | 0.0 | 0.0 | 0.00 | 0.00 | 0.00 | 34 | 1014.4 |
| 20260507144643 | 53 | 0 | 0.0 | 0.0 | 0.00 | 0.00 | 0.00 | 34 | 1014.3 |
| 20260507143742 | 54 | 0 | 0.0 | 0.0 | 0.00 | 0.00 | 0.00 | 34 | 1014.4 |
| 20260507142843 | 54 | 0 | 0.0 | 0.0 | 0.00 | 0.00 | 0.00 | 31 | 1014.4 |
| 20260507142156 | 54 | 0 | 0.0 | 2.0 | 0.00 | 0.00 | 0.00 | 35 | 1014.4 |
| 20260507141253 | 54 | 0 | 0.0 | 2.0 | 0.00 | 0.00 | 0.00 | 32 | 1014.3 |
| 20260507140143 | 54 | 0 | 0.0 | 2.0 | 0.00 | 0.00 | 0.00 | 32 | 1014.4 |
| 20260507135242 | 54 | 0 | 0.0 | 1.0 | 0.00 | 0.00 | 0.00 | 31 | 1014.4 |
| 20260507134342 | 54 | 0 | 0.0 | 6.0 | 0.00 | 0.00 | 0.00 | 32 | 1014.4 |
| 20260507133442 | 54 | 68 | 1.0 | 5.0 | 0.00 | 0.00 | 0.00 | 32 | 1014.4 |
| 20260507132542 | 55 | 0 | 0.0 | 5.0 | 0.00 | 0.00 | 0.00 | 32 | 1014.5 |
| 20260507131643 | 55 | 223 | 1.0 | 5.0 | 0.00 | 0.00 | 0.00 | 30 | 1014.4 |
| 20260507130954 | 55 | 0 | 0.0 | 5.0 | 0.00 | 0.00 | 0.00 | 30 | 1014.4 |
| 20260507125842 | 55 | 0 | 0.0 | 2.0 | 0.00 | 0.00 | 0.00 | 30 | 1014.5 |
| 20260507124942 | 56 | 0 | 0.0 | 3.0 | 0.00 | 0.00 | 0.00 | 30 | 1014.5 |
| 20260507124042 | 56 | 88 | 3.0 | 9.0 | 0.00 | 0.00 | 0.00 | 30 | 1014.4 |
| 20260507123142 | 58 | 114 | 2.0 | 8.0 | 0.00 | 0.00 | 0.00 | 31 | 1014.5 |
| 20260507122242 | 58 | 116 | 2.0 | 7.0 | 0.00 | 0.00 | 0.00 | 30 | 1014.5 |
| 20260507121342 | 57 | 212 | 1.0 | 7.0 | 0.00 | 0.00 | 0.00 | 31 | 1014.5 |
| 20260507120656 | 57 | 188 | 2.0 | 4.0 | 0.00 | 0.00 | 0.00 | 29 | 1014.5 |
| 20260507115542 | 58 | 155 | 1.0 | 7.0 | 0.00 | 0.00 | 0.00 | 30 | 1014.5 |
| 20260507114642 | 58 | 143 | 1.0 | 7.0 | 0.00 | 0.00 | 0.00 | 31 | 1014.5 |
| 20260507113743 | 57 | 93 | 1.0 | 6.0 | 0.00 | 0.00 | 0.00 | 30 | 1014.5 |
| 20260507112843 | 57 | 111 | 1.0 | 7.0 | 0.00 | 0.00 | 0.00 | 31 | 1014.7 |
| 20260507111942 | 56 | 205 | 2.0 | 7.0 | 0.00 | 0.00 | 0.00 | 29 | 1014.8 |